User: anonymous   Login
Location: Newark
(48.5667°N, 7.8167°E)
Time: 13:50:01
(UTC+00:00)
Language:

METEOR M2 - Orbit

View from above orbital plane
View from above orbital plane
View from above satellite
View from above satellite

Ground track
Ground track

The orbit data is extracted from the following two-line orbital elements,

1 40069U 14037A   20191.09465598 -.00000042  00000-0 -27605-7 0  9998
2 40069  98.5008 227.8112 0004992 210.3107 149.7786 14.20673413311280
Epoch (UTC): 09 July 2020 02:16:18
Eccentricity: 0.0004992
inclination: 98.5008°
perigee height: 819 km
apogee height: 826 km
right ascension of ascending node: 227.8112°
argument of perigee: 210.3107°
revolutions per day: 14.20673413
mean anomaly at epoch: 149.7786°
orbit number at epoch: 31128

The dashed part of the orbit path shows where the satellite is in the earth's shadow,  

DLR